Year,Month,Day,Hour,Minute,Value (Times are PST for temperature in C)
2021,06,30,00,00,15.90
2021,06,30,00,01,15.90
2021,06,30,00,02,15.90
2021,06,30,00,03,15.80
2021,06,30,00,04,15.80
2021,06,30,00,05,15.80
2021,06,30,00,06,15.80
2021,06,30,00,07,15.90
2021,06,30,00,08,15.90
2021,06,30,00,09,15.90
2021,06,30,00,10,15.90
2021,06,30,00,11,15.90
2021,06,30,00,12,15.90
2021,06,30,00,13,15.90
2021,06,30,00,14,15.90
2021,06,30,00,15,15.90
2021,06,30,00,16,16.00
2021,06,30,00,17,16.00
2021,06,30,00,18,16.00
2021,06,30,00,19,16.00
2021,06,30,00,20,16.00
2021,06,30,00,21,15.90
2021,06,30,00,22,15.90
2021,06,30,00,23,15.90
2021,06,30,00,24,15.90
2021,06,30,00,25,15.90
2021,06,30,00,26,15.90
2021,06,30,00,27,15.90
2021,06,30,00,28,15.90
2021,06,30,00,29,15.80
2021,06,30,00,30,15.80
2021,06,30,00,31,15.80
2021,06,30,00,32,15.80
2021,06,30,00,33,15.80
2021,06,30,00,34,15.80
2021,06,30,00,35,15.80
2021,06,30,00,36,15.80
2021,06,30,00,37,15.80
2021,06,30,00,38,15.80
2021,06,30,00,39,15.80
2021,06,30,00,40,15.80
2021,06,30,00,41,15.80
2021,06,30,00,42,15.80
2021,06,30,00,43,15.70
2021,06,30,00,44,15.70
2021,06,30,00,45,15.70
2021,06,30,00,46,15.80
2021,06,30,00,47,15.70
2021,06,30,00,48,15.70
2021,06,30,00,49,15.70
2021,06,30,00,50,15.70
2021,06,30,00,51,15.70
2021,06,30,00,52,15.80
2021,06,30,00,53,15.80
2021,06,30,00,54,15.80
2021,06,30,00,55,15.80
2021,06,30,00,56,15.90
2021,06,30,00,57,15.90
2021,06,30,00,58,15.90
2021,06,30,00,59,15.90
2021,06,30,01,00,15.90
2021,06,30,01,01,15.90
2021,06,30,01,02,15.80
2021,06,30,01,03,15.80
2021,06,30,01,04,15.80
2021,06,30,01,05,15.80
2021,06,30,01,06,15.80
2021,06,30,01,07,15.70
2021,06,30,01,08,15.70
2021,06,30,01,09,15.70
2021,06,30,01,10,15.70
2021,06,30,01,11,15.80
2021,06,30,01,12,15.80
2021,06,30,01,13,15.80
2021,06,30,01,14,15.90
2021,06,30,01,15,15.90
2021,06,30,01,16,16.00
2021,06,30,01,17,16.10
2021,06,30,01,18,16.10
2021,06,30,01,19,16.20
2021,06,30,01,20,16.20
2021,06,30,01,21,16.10
2021,06,30,01,22,16.00
2021,06,30,01,23,15.90
2021,06,30,01,24,15.70
2021,06,30,01,25,15.60
2021,06,30,01,26,15.50
2021,06,30,01,27,15.50
2021,06,30,01,28,15.50
2021,06,30,01,29,15.40
2021,06,30,01,30,15.40
2021,06,30,01,31,15.40
2021,06,30,01,32,15.30
2021,06,30,01,33,15.20
2021,06,30,01,34,15.20
2021,06,30,01,35,15.10
2021,06,30,01,36,15.10
2021,06,30,01,37,15.20
2021,06,30,01,38,15.20
2021,06,30,01,39,15.20
2021,06,30,01,40,15.30
2021,06,30,01,41,15.30
2021,06,30,01,42,15.30
2021,06,30,01,43,15.40
2021,06,30,01,44,15.40
2021,06,30,01,45,15.40
2021,06,30,01,46,15.40
2021,06,30,01,47,15.40
2021,06,30,01,48,15.40
2021,06,30,01,49,15.40
2021,06,30,01,50,15.40
2021,06,30,01,51,15.40
2021,06,30,01,52,15.40
2021,06,30,01,53,15.40
2021,06,30,01,54,15.40
2021,06,30,01,55,15.40
2021,06,30,01,56,15.40
2021,06,30,01,57,15.40
2021,06,30,01,58,15.30
2021,06,30,01,59,15.20
2021,06,30,02,00,15.20
2021,06,30,02,01,15.10
2021,06,30,02,02,15.00
2021,06,30,02,03,15.00
2021,06,30,02,04,14.90
2021,06,30,02,05,14.90
2021,06,30,02,06,14.90
2021,06,30,02,07,14.80
2021,06,30,02,08,14.80
2021,06,30,02,09,14.70
2021,06,30,02,10,14.60
2021,06,30,02,11,14.60
2021,06,30,02,12,14.60
2021,06,30,02,13,14.50
2021,06,30,02,14,14.50
2021,06,30,02,15,14.50
2021,06,30,02,16,14.50
2021,06,30,02,17,14.50
2021,06,30,02,18,14.50
2021,06,30,02,19,14.50
2021,06,30,02,20,14.40
2021,06,30,02,21,14.40
2021,06,30,02,22,14.40
2021,06,30,02,23,14.40
2021,06,30,02,24,14.40
2021,06,30,02,25,14.40
2021,06,30,02,26,14.40
2021,06,30,02,27,14.40
2021,06,30,02,28,14.40
2021,06,30,02,29,14.40
2021,06,30,02,30,14.40
2021,06,30,02,31,14.40
2021,06,30,02,32,14.40
2021,06,30,02,33,14.30
2021,06,30,02,34,14.30
2021,06,30,02,35,14.40
2021,06,30,02,36,14.40
2021,06,30,02,37,14.40
2021,06,30,02,38,14.40
2021,06,30,02,39,14.40
2021,06,30,02,40,14.40
2021,06,30,02,41,14.40
2021,06,30,02,42,14.40
2021,06,30,02,43,14.30
2021,06,30,02,44,14.30
2021,06,30,02,45,14.30
2021,06,30,02,46,14.30
2021,06,30,02,47,14.20
2021,06,30,02,48,14.20
2021,06,30,02,49,14.20
2021,06,30,02,50,14.20
2021,06,30,02,51,14.20
2021,06,30,02,52,14.20
2021,06,30,02,53,14.10
2021,06,30,02,54,14.10
2021,06,30,02,55,14.10
2021,06,30,02,56,14.10
2021,06,30,02,57,14.10
2021,06,30,02,58,14.10
2021,06,30,02,59,14.10
2021,06,30,03,00,14.00
2021,06,30,03,01,14.00
2021,06,30,03,02,14.00
2021,06,30,03,03,14.00
2021,06,30,03,04,14.00
2021,06,30,03,05,14.00
2021,06,30,03,06,14.10
2021,06,30,03,07,14.00
2021,06,30,03,08,14.00
2021,06,30,03,09,14.00
2021,06,30,03,10,13.90
2021,06,30,03,11,13.90
2021,06,30,03,12,13.90
2021,06,30,03,13,13.80
2021,06,30,03,14,13.80
2021,06,30,03,15,13.80
2021,06,30,03,16,13.80
2021,06,30,03,17,13.80
2021,06,30,03,18,13.80
2021,06,30,03,19,13.80
2021,06,30,03,20,13.80
2021,06,30,03,21,13.80
2021,06,30,03,22,13.80
2021,06,30,03,23,13.80
2021,06,30,03,24,13.80
2021,06,30,03,25,13.80
2021,06,30,03,26,13.80
2021,06,30,03,27,13.80
2021,06,30,03,28,13.80
2021,06,30,03,29,13.80
2021,06,30,03,30,13.80
2021,06,30,03,31,13.80
2021,06,30,03,32,13.80
2021,06,30,03,33,13.80
2021,06,30,03,34,13.80
2021,06,30,03,35,13.90
2021,06,30,03,36,13.80
2021,06,30,03,37,13.80
2021,06,30,03,38,13.80
2021,06,30,03,39,13.80
2021,06,30,03,40,13.80
2021,06,30,03,41,13.80
2021,06,30,03,42,13.80
2021,06,30,03,43,13.80
2021,06,30,03,44,13.80
2021,06,30,03,45,13.80
2021,06,30,03,46,13.80
2021,06,30,03,47,13.80
2021,06,30,03,48,13.80
2021,06,30,03,49,13.80
2021,06,30,03,50,13.80
2021,06,30,03,51,13.80
2021,06,30,03,52,13.80
2021,06,30,03,53,13.70
2021,06,30,03,54,13.70
2021,06,30,03,55,13.80
2021,06,30,03,56,13.80
2021,06,30,03,57,13.80
2021,06,30,03,58,13.80
2021,06,30,03,59,13.80
2021,06,30,04,00,13.80
2021,06,30,04,01,13.90
2021,06,30,04,02,13.80
2021,06,30,04,03,13.80
2021,06,30,04,04,13.80
2021,06,30,04,05,13.80
2021,06,30,04,06,13.80
2021,06,30,04,07,13.70
2021,06,30,04,08,13.70
2021,06,30,04,09,13.70
2021,06,30,04,10,13.70
2021,06,30,04,11,13.70
2021,06,30,04,12,13.70
2021,06,30,04,13,13.70
2021,06,30,04,14,13.70
2021,06,30,04,15,13.70
2021,06,30,04,16,13.70
2021,06,30,04,17,13.80
2021,06,30,04,18,13.80
2021,06,30,04,19,13.80
2021,06,30,04,20,13.80
2021,06,30,04,21,13.80
2021,06,30,04,22,13.80
2021,06,30,04,23,13.80
2021,06,30,04,24,13.90
2021,06,30,04,25,13.90
2021,06,30,04,26,13.90
2021,06,30,04,27,13.90
2021,06,30,04,28,13.90
2021,06,30,04,29,13.90
2021,06,30,04,30,13.90
2021,06,30,04,31,14.00
2021,06,30,04,32,14.00
2021,06,30,04,33,14.10
2021,06,30,04,34,14.10
2021,06,30,04,35,14.20
2021,06,30,04,36,14.30
2021,06,30,04,37,14.30
2021,06,30,04,38,14.40
2021,06,30,04,39,14.40
2021,06,30,04,40,14.50
2021,06,30,04,41,14.60
2021,06,30,04,42,14.70
2021,06,30,04,43,14.70
2021,06,30,04,44,14.80
2021,06,30,04,45,14.80
2021,06,30,04,46,14.80
2021,06,30,04,47,14.80
2021,06,30,04,48,14.80
2021,06,30,04,49,14.80
2021,06,30,04,50,14.80
2021,06,30,04,51,14.90
2021,06,30,04,52,14.90
2021,06,30,04,53,15.00
2021,06,30,04,54,15.10
2021,06,30,04,55,15.20
2021,06,30,04,56,15.20
2021,06,30,04,57,15.40
2021,06,30,04,58,15.40
2021,06,30,04,59,15.50
2021,06,30,05,00,15.50
2021,06,30,05,01,15.60
2021,06,30,05,02,15.60
2021,06,30,05,03,15.60
2021,06,30,05,04,15.60
2021,06,30,05,05,15.60
2021,06,30,05,06,15.60
2021,06,30,05,07,15.60
2021,06,30,05,08,15.60
2021,06,30,05,09,15.70
2021,06,30,05,10,15.70
2021,06,30,05,11,15.70
2021,06,30,05,12,15.70
2021,06,30,05,13,15.70
2021,06,30,05,14,15.70
2021,06,30,05,15,15.70
2021,06,30,05,16,15.80
2021,06,30,05,17,15.80
2021,06,30,05,18,15.80
2021,06,30,05,19,15.80
2021,06,30,05,20,15.80
2021,06,30,05,21,15.80
2021,06,30,05,22,15.80
2021,06,30,05,23,15.80
2021,06,30,05,24,15.70
2021,06,30,05,25,15.70
2021,06,30,05,26,15.70
2021,06,30,05,27,15.70
2021,06,30,05,28,15.60
2021,06,30,05,29,15.60
2021,06,30,05,30,15.60
2021,06,30,05,31,15.50
2021,06,30,05,32,15.50
2021,06,30,05,33,15.50
2021,06,30,05,34,15.50
2021,06,30,05,35,15.50
2021,06,30,05,36,15.50
2021,06,30,05,37,15.50
2021,06,30,05,38,15.50
2021,06,30,05,39,15.60
2021,06,30,05,40,15.60
2021,06,30,05,41,15.70
2021,06,30,05,42,15.70
2021,06,30,05,43,15.70
2021,06,30,05,44,15.70
2021,06,30,05,45,15.70
2021,06,30,05,46,15.70
2021,06,30,05,47,15.80
2021,06,30,05,48,15.80
2021,06,30,05,49,15.80
2021,06,30,05,50,15.80
2021,06,30,05,51,15.80
2021,06,30,05,52,15.80
2021,06,30,05,53,15.80
2021,06,30,05,54,15.90
2021,06,30,05,55,15.90
2021,06,30,05,56,15.90
2021,06,30,05,57,15.90
2021,06,30,05,58,15.90
2021,06,30,05,59,16.00
2021,06,30,06,00,16.00
2021,06,30,06,01,16.00
2021,06,30,06,02,16.00
2021,06,30,06,03,16.00
2021,06,30,06,04,16.00
2021,06,30,06,05,16.00
2021,06,30,06,06,16.00
2021,06,30,06,07,16.00
2021,06,30,06,08,16.00
2021,06,30,06,09,16.00
2021,06,30,06,10,16.00
2021,06,30,06,11,16.10
2021,06,30,06,12,16.10
2021,06,30,06,13,16.10
2021,06,30,06,14,16.10
2021,06,30,06,15,16.10
2021,06,30,06,16,16.10
2021,06,30,06,17,16.10
2021,06,30,06,18,16.10
2021,06,30,06,19,16.20
2021,06,30,06,20,16.20
2021,06,30,06,21,16.20
2021,06,30,06,22,16.20
2021,06,30,06,23,16.20
2021,06,30,06,24,16.30
2021,06,30,06,25,16.30
2021,06,30,06,26,16.30
2021,06,30,06,27,16.30
2021,06,30,06,28,16.40
2021,06,30,06,29,16.40
2021,06,30,06,30,16.40
2021,06,30,06,31,16.50
2021,06,30,06,32,16.50
2021,06,30,06,33,16.60
2021,06,30,06,34,16.60
2021,06,30,06,35,16.60
2021,06,30,06,36,16.70
2021,06,30,06,37,16.70
2021,06,30,06,38,16.70
2021,06,30,06,39,16.70
2021,06,30,06,40,16.80
2021,06,30,06,41,16.80
2021,06,30,06,42,16.80
2021,06,30,06,43,16.80
2021,06,30,06,44,16.80
2021,06,30,06,45,16.80
2021,06,30,06,46,16.90
2021,06,30,06,47,16.90
2021,06,30,06,48,16.90
2021,06,30,06,49,16.90
2021,06,30,06,50,16.90
2021,06,30,06,51,17.00
2021,06,30,06,52,17.00
2021,06,30,06,53,17.10
2021,06,30,06,54,17.10
2021,06,30,06,55,17.10
2021,06,30,06,56,17.10
2021,06,30,06,57,17.10
2021,06,30,06,58,17.10
2021,06,30,06,59,17.10
2021,06,30,07,00,17.20
2021,06,30,07,01,17.20
2021,06,30,07,02,17.20
2021,06,30,07,03,17.20
2021,06,30,07,04,17.20
2021,06,30,07,05,17.20
2021,06,30,07,06,17.20
2021,06,30,07,07,17.20
2021,06,30,07,08,17.20
2021,06,30,07,09,17.30
2021,06,30,07,10,17.30
2021,06,30,07,11,17.30
2021,06,30,07,12,17.30
2021,06,30,07,13,17.40
2021,06,30,07,14,17.40
2021,06,30,07,15,17.40
2021,06,30,07,16,17.40
2021,06,30,07,17,17.40
2021,06,30,07,18,17.40
2021,06,30,07,19,17.40
2021,06,30,07,20,17.50
2021,06,30,07,21,17.60
2021,06,30,07,22,17.60
2021,06,30,07,23,17.60
2021,06,30,07,24,17.60
2021,06,30,07,25,17.70
2021,06,30,07,26,17.70
2021,06,30,07,27,17.70
2021,06,30,07,28,17.70
2021,06,30,07,29,17.70
2021,06,30,07,30,17.70
2021,06,30,07,31,17.70
2021,06,30,07,32,17.70
2021,06,30,07,33,17.70
2021,06,30,07,34,17.70
2021,06,30,07,35,17.70
2021,06,30,07,36,17.80
2021,06,30,07,37,17.80
2021,06,30,07,38,17.80
2021,06,30,07,39,17.80
2021,06,30,07,40,17.80
2021,06,30,07,41,17.80
2021,06,30,07,42,17.90
2021,06,30,07,43,17.90
2021,06,30,07,44,17.90
2021,06,30,07,45,17.90
2021,06,30,07,46,18.00
2021,06,30,07,47,18.00
2021,06,30,07,48,18.00
2021,06,30,07,49,18.00
2021,06,30,07,50,18.00
2021,06,30,07,51,18.10
2021,06,30,07,52,18.10
2021,06,30,07,53,18.10
2021,06,30,07,54,18.10
2021,06,30,07,55,18.10
2021,06,30,07,56,18.20
2021,06,30,07,57,18.20
2021,06,30,07,58,18.20
2021,06,30,07,59,18.30
2021,06,30,08,00,18.30
2021,06,30,08,01,18.30
2021,06,30,08,02,18.30
2021,06,30,08,03,18.30
2021,06,30,08,04,18.40
2021,06,30,08,05,18.40
2021,06,30,08,06,18.40
2021,06,30,08,07,18.40
2021,06,30,08,08,18.40
2021,06,30,08,09,18.40
2021,06,30,08,10,18.40
2021,06,30,08,11,18.40
2021,06,30,08,12,18.40
2021,06,30,08,13,18.40
2021,06,30,08,14,18.40
2021,06,30,08,15,18.50
2021,06,30,08,16,18.50
2021,06,30,08,17,18.50
2021,06,30,08,18,18.50
2021,06,30,08,19,18.60
2021,06,30,08,20,18.60
2021,06,30,08,21,18.60
2021,06,30,08,22,18.60
2021,06,30,08,23,18.60
2021,06,30,08,24,18.60
2021,06,30,08,25,18.60
2021,06,30,08,26,18.60
2021,06,30,08,27,18.60
2021,06,30,08,28,18.60
2021,06,30,08,29,18.60
2021,06,30,08,30,18.60
2021,06,30,08,31,18.50
2021,06,30,08,32,18.50
2021,06,30,08,33,18.50
2021,06,30,08,34,18.50
2021,06,30,08,35,18.50
2021,06,30,08,36,18.60
2021,06,30,08,37,18.60
2021,06,30,08,38,18.60
2021,06,30,08,39,18.60
2021,06,30,08,40,18.60
2021,06,30,08,41,18.60
2021,06,30,08,42,18.60
2021,06,30,08,43,18.60
2021,06,30,08,44,18.70
2021,06,30,08,45,18.70
2021,06,30,08,46,18.70
2021,06,30,08,47,18.60
2021,06,30,08,48,18.60
2021,06,30,08,49,18.60
2021,06,30,08,50,18.50
2021,06,30,08,51,18.50
2021,06,30,08,52,18.50
2021,06,30,08,53,18.50
2021,06,30,08,54,18.60
2021,06,30,08,55,18.60
2021,06,30,08,56,18.50
2021,06,30,08,57,18.60
2021,06,30,08,58,18.50
2021,06,30,08,59,18.50
2021,06,30,09,00,18.50
2021,06,30,09,01,18.50
2021,06,30,09,02,18.40
2021,06,30,09,03,18.30
2021,06,30,09,04,18.30
2021,06,30,09,05,18.20
2021,06,30,09,06,18.20
2021,06,30,09,07,18.10
2021,06,30,09,08,18.10
2021,06,30,09,09,18.10
2021,06,30,09,10,18.10
2021,06,30,09,11,18.00
2021,06,30,09,12,18.00
2021,06,30,09,13,18.00
2021,06,30,09,14,18.00
2021,06,30,09,15,18.10
2021,06,30,09,16,18.10
2021,06,30,09,17,18.10
2021,06,30,09,18,18.10
2021,06,30,09,19,18.20
2021,06,30,09,20,18.10
2021,06,30,09,21,18.10
2021,06,30,09,22,18.10
2021,06,30,09,23,18.00
2021,06,30,09,24,18.00
2021,06,30,09,25,18.00
2021,06,30,09,26,18.00
2021,06,30,09,27,18.10
2021,06,30,09,28,18.10
2021,06,30,09,29,18.10
2021,06,30,09,30,18.10
2021,06,30,09,31,18.10
2021,06,30,09,32,18.00
2021,06,30,09,33,18.00
2021,06,30,09,34,18.10
2021,06,30,09,35,18.10
2021,06,30,09,36,18.10
2021,06,30,09,37,18.20
2021,06,30,09,38,18.20
2021,06,30,09,39,18.20
2021,06,30,09,40,18.30
2021,06,30,09,41,18.30
2021,06,30,09,42,18.30
2021,06,30,09,43,18.40
2021,06,30,09,44,18.40
2021,06,30,09,45,18.40
2021,06,30,09,46,18.40
2021,06,30,09,47,18.40
2021,06,30,09,48,18.40
2021,06,30,09,49,18.40
2021,06,30,09,50,18.40
2021,06,30,09,51,18.40
2021,06,30,09,52,18.40
2021,06,30,09,53,18.40
2021,06,30,09,54,18.40
2021,06,30,09,55,18.50
2021,06,30,09,56,18.60
2021,06,30,09,57,18.70
2021,06,30,09,58,18.70
2021,06,30,09,59,18.80
2021,06,30,10,00,18.80
2021,06,30,10,01,18.80
2021,06,30,10,02,18.90
2021,06,30,10,03,19.00
2021,06,30,10,04,19.10
2021,06,30,10,05,19.20
2021,06,30,10,06,19.20
2021,06,30,10,07,19.30
2021,06,30,10,08,19.40
2021,06,30,10,09,19.40
2021,06,30,10,10,19.50
2021,06,30,10,11,19.60
2021,06,30,10,12,19.60
2021,06,30,10,13,19.60
2021,06,30,10,14,19.50
2021,06,30,10,15,19.50
2021,06,30,10,16,19.40
2021,06,30,10,17,19.30
2021,06,30,10,18,19.30
2021,06,30,10,19,19.30
2021,06,30,10,20,19.30
2021,06,30,10,21,19.40
2021,06,30,10,22,19.40
2021,06,30,10,23,19.40
2021,06,30,10,24,19.40
2021,06,30,10,25,19.40
2021,06,30,10,26,19.40
2021,06,30,10,27,19.50
2021,06,30,10,28,19.50
2021,06,30,10,29,19.60
2021,06,30,10,30,19.70
2021,06,30,10,31,19.70
2021,06,30,10,32,19.80
2021,06,30,10,33,19.80
2021,06,30,10,34,19.80
2021,06,30,10,35,19.80
2021,06,30,10,36,19.80
2021,06,30,10,37,19.70
2021,06,30,10,38,19.70
2021,06,30,10,39,19.50
2021,06,30,10,40,19.40
2021,06,30,10,41,19.30
2021,06,30,10,42,19.30
2021,06,30,10,43,19.20
2021,06,30,10,44,19.20
2021,06,30,10,45,19.10
2021,06,30,10,46,19.10
2021,06,30,10,47,19.00
2021,06,30,10,48,18.90
2021,06,30,10,49,18.90
2021,06,30,10,50,18.80
2021,06,30,10,51,18.80
2021,06,30,10,52,18.80
2021,06,30,10,53,18.70
2021,06,30,10,54,18.80
2021,06,30,10,55,18.80
2021,06,30,10,56,18.80
2021,06,30,10,57,18.80
2021,06,30,10,58,18.80
2021,06,30,10,59,18.80
2021,06,30,11,00,18.80
2021,06,30,11,01,18.80
2021,06,30,11,02,18.70
2021,06,30,11,03,18.70
2021,06,30,11,04,18.60
2021,06,30,11,05,18.60
2021,06,30,11,06,18.60
2021,06,30,11,07,18.60
2021,06,30,11,08,18.60
2021,06,30,11,09,18.60
2021,06,30,11,10,18.60
2021,06,30,11,11,18.50
2021,06,30,11,12,18.40
2021,06,30,11,13,18.30
2021,06,30,11,14,18.30
2021,06,30,11,15,18.20
2021,06,30,11,16,18.20
2021,06,30,11,17,18.20
2021,06,30,11,18,18.10
2021,06,30,11,19,18.00
2021,06,30,11,20,17.90
2021,06,30,11,21,17.80
2021,06,30,11,22,17.70
2021,06,30,11,23,17.60
2021,06,30,11,24,17.50
2021,06,30,11,25,17.40
2021,06,30,11,26,17.40
2021,06,30,11,27,17.50
2021,06,30,11,28,17.50
2021,06,30,11,29,17.60
2021,06,30,11,30,17.60
2021,06,30,11,31,17.60
2021,06,30,11,32,17.60
2021,06,30,11,33,17.70
2021,06,30,11,34,17.70
2021,06,30,11,35,17.80
2021,06,30,11,36,17.80
2021,06,30,11,37,17.90
2021,06,30,11,38,17.90
2021,06,30,11,39,18.00
2021,06,30,11,40,18.00
2021,06,30,11,41,18.10
2021,06,30,11,42,18.10
2021,06,30,11,43,18.20
2021,06,30,11,44,18.20
2021,06,30,11,45,18.20
2021,06,30,11,46,18.20
2021,06,30,11,47,18.20
2021,06,30,11,48,18.30
2021,06,30,11,49,18.30
2021,06,30,11,50,18.30
2021,06,30,11,51,18.30
2021,06,30,11,52,18.30
2021,06,30,11,53,18.30
2021,06,30,11,54,18.30
2021,06,30,11,55,18.30
2021,06,30,11,56,18.20
2021,06,30,11,57,18.20
2021,06,30,11,58,18.10
2021,06,30,11,59,18.10
2021,06,30,12,00,18.10
2021,06,30,12,01,18.10
2021,06,30,12,02,18.10
2021,06,30,12,03,18.10
2021,06,30,12,04,18.10
2021,06,30,12,05,18.00
2021,06,30,12,06,18.00
2021,06,30,12,07,17.90
2021,06,30,12,08,17.90
2021,06,30,12,09,17.90
2021,06,30,12,10,18.00
2021,06,30,12,11,18.00
2021,06,30,12,12,18.00
2021,06,30,12,13,18.10
2021,06,30,12,14,18.10
2021,06,30,12,15,18.10
2021,06,30,12,16,18.20
2021,06,30,12,17,18.20
2021,06,30,12,18,18.20
2021,06,30,12,19,18.30
2021,06,30,12,20,18.30
2021,06,30,12,21,18.30
2021,06,30,12,22,18.40
2021,06,30,12,23,18.40
2021,06,30,12,24,18.40
2021,06,30,12,25,18.50
2021,06,30,12,26,18.50
2021,06,30,12,27,18.50
2021,06,30,12,28,18.50
2021,06,30,12,29,18.40
2021,06,30,12,30,18.40
2021,06,30,12,31,18.40
2021,06,30,12,32,18.30
2021,06,30,12,33,18.30
2021,06,30,12,34,18.30
2021,06,30,12,35,18.30
2021,06,30,12,36,18.30
2021,06,30,12,37,18.30
2021,06,30,12,38,18.30
2021,06,30,12,39,18.30
2021,06,30,12,40,18.20
2021,06,30,12,41,18.20
2021,06,30,12,42,18.20
2021,06,30,12,43,18.10
2021,06,30,12,44,18.10
2021,06,30,12,45,18.10
2021,06,30,12,46,18.10
2021,06,30,12,47,18.10
2021,06,30,12,48,18.10
2021,06,30,12,49,18.10
2021,06,30,12,50,18.20
2021,06,30,12,51,18.20
2021,06,30,12,52,18.20
2021,06,30,12,53,18.20
2021,06,30,12,54,18.20
2021,06,30,12,55,18.30
2021,06,30,12,56,18.30
2021,06,30,12,57,18.30
2021,06,30,12,58,18.20
2021,06,30,12,59,18.20
2021,06,30,13,00,18.20
2021,06,30,13,01,18.20
2021,06,30,13,02,18.20
2021,06,30,13,03,18.20
2021,06,30,13,04,18.10
2021,06,30,13,05,18.10
2021,06,30,13,06,18.10
2021,06,30,13,07,18.10
2021,06,30,13,08,18.20
2021,06,30,13,09,18.30
2021,06,30,13,10,18.40
2021,06,30,13,11,18.50
2021,06,30,13,12,18.50
2021,06,30,13,13,18.40
2021,06,30,13,14,18.40
2021,06,30,13,15,18.40
2021,06,30,13,16,18.40
2021,06,30,13,17,18.40
2021,06,30,13,18,18.40
2021,06,30,13,19,18.40
2021,06,30,13,20,18.40
2021,06,30,13,21,18.30
2021,06,30,13,22,18.30
2021,06,30,13,23,18.30
2021,06,30,13,24,18.40
2021,06,30,13,25,18.30
2021,06,30,13,26,18.30
2021,06,30,13,27,18.30
2021,06,30,13,28,18.30
2021,06,30,13,29,18.20
2021,06,30,13,30,18.20
2021,06,30,13,31,18.20
2021,06,30,13,32,18.20
2021,06,30,13,33,18.20
2021,06,30,13,34,18.20
2021,06,30,13,35,18.20
2021,06,30,13,36,18.20
2021,06,30,13,37,18.20
2021,06,30,13,38,18.20
2021,06,30,13,39,18.30
2021,06,30,13,40,18.30
2021,06,30,13,41,18.30
2021,06,30,13,42,18.30
2021,06,30,13,43,18.30
2021,06,30,13,44,18.30
2021,06,30,13,45,18.40
2021,06,30,13,46,18.30
2021,06,30,13,47,18.30
2021,06,30,13,48,18.40
2021,06,30,13,49,18.40
2021,06,30,13,50,18.30
2021,06,30,13,51,18.30
2021,06,30,13,52,18.30
2021,06,30,13,53,18.30
2021,06,30,13,54,18.30
2021,06,30,13,55,18.30
2021,06,30,13,56,18.30
2021,06,30,13,57,18.20
2021,06,30,13,58,18.20
2021,06,30,13,59,18.30
2021,06,30,14,00,18.30
2021,06,30,14,01,18.30
2021,06,30,14,02,18.30
2021,06,30,14,03,18.30
2021,06,30,14,04,18.20
2021,06,30,14,05,18.20
2021,06,30,14,06,18.10
2021,06,30,14,07,18.10
2021,06,30,14,08,18.00
2021,06,30,14,09,17.90
2021,06,30,14,10,17.90
2021,06,30,14,11,17.90
2021,06,30,14,12,17.90
2021,06,30,14,13,17.90
2021,06,30,14,14,17.90
2021,06,30,14,15,17.90
2021,06,30,14,16,17.90
2021,06,30,14,17,17.80
2021,06,30,14,18,17.80
2021,06,30,14,19,17.70
2021,06,30,14,20,17.70
2021,06,30,14,21,17.60
2021,06,30,14,22,17.60
2021,06,30,14,23,17.60
2021,06,30,14,24,17.60
2021,06,30,14,25,17.60
2021,06,30,14,26,17.60
2021,06,30,14,27,17.60
2021,06,30,14,28,17.50
2021,06,30,14,29,17.40
2021,06,30,14,30,17.40
2021,06,30,14,31,17.40
2021,06,30,14,32,17.40
2021,06,30,14,33,17.30
2021,06,30,14,34,17.40
2021,06,30,14,35,17.40
2021,06,30,14,36,17.40
2021,06,30,14,37,17.40
2021,06,30,14,38,17.40
2021,06,30,14,39,17.40
2021,06,30,14,40,17.50
2021,06,30,14,41,17.50
2021,06,30,14,42,17.50
2021,06,30,14,43,17.50
2021,06,30,14,44,17.60
2021,06,30,14,45,17.60
2021,06,30,14,46,17.60
2021,06,30,14,47,17.70
2021,06,30,14,48,17.80
2021,06,30,14,49,17.80
2021,06,30,14,50,17.80
2021,06,30,14,51,17.80
2021,06,30,14,52,17.80
2021,06,30,14,53,17.80
2021,06,30,14,54,17.80
2021,06,30,14,55,17.80
2021,06,30,14,56,17.80
2021,06,30,14,57,17.80
2021,06,30,14,58,17.80
2021,06,30,14,59,17.90
2021,06,30,15,00,17.90
2021,06,30,15,01,18.00
2021,06,30,15,02,18.00
2021,06,30,15,03,18.10
2021,06,30,15,04,18.20
2021,06,30,15,05,18.20
2021,06,30,15,06,18.30
2021,06,30,15,07,18.40
2021,06,30,15,08,18.60
2021,06,30,15,09,18.70
2021,06,30,15,10,18.90
2021,06,30,15,11,19.00
2021,06,30,15,12,19.10
2021,06,30,15,13,19.20
2021,06,30,15,14,19.20
2021,06,30,15,15,19.10
2021,06,30,15,16,19.10
2021,06,30,15,17,19.00
2021,06,30,15,18,18.90
2021,06,30,15,19,18.90
2021,06,30,15,20,18.90
2021,06,30,15,21,18.90
2021,06,30,15,22,18.90
2021,06,30,15,23,18.90
2021,06,30,15,24,18.90
2021,06,30,15,25,18.90
2021,06,30,15,26,19.00
2021,06,30,15,27,19.00
2021,06,30,15,28,19.00
2021,06,30,15,29,19.10
2021,06,30,15,30,19.20
2021,06,30,15,31,19.40
2021,06,30,15,32,19.40
2021,06,30,15,33,19.50
2021,06,30,15,34,19.70
2021,06,30,15,35,19.80
2021,06,30,15,36,19.80
2021,06,30,15,37,20.00
2021,06,30,15,38,20.10
2021,06,30,15,39,20.20
2021,06,30,15,40,20.30
2021,06,30,15,41,20.40
2021,06,30,15,42,20.50
2021,06,30,15,43,20.60
2021,06,30,15,44,20.70
2021,06,30,15,45,20.80
2021,06,30,15,46,20.90
2021,06,30,15,47,21.00
2021,06,30,15,48,21.10
2021,06,30,15,49,21.20
2021,06,30,15,50,21.30
2021,06,30,15,51,21.40
2021,06,30,15,52,21.50
2021,06,30,15,53,21.50
2021,06,30,15,54,21.50
2021,06,30,15,55,21.50
2021,06,30,15,56,21.50
2021,06,30,15,57,21.40
2021,06,30,15,58,21.40
2021,06,30,15,59,21.40
2021,06,30,16,00,21.40
2021,06,30,16,01,21.40
2021,06,30,16,02,21.40
2021,06,30,16,03,21.50
2021,06,30,16,04,21.50
2021,06,30,16,05,21.60
2021,06,30,16,06,21.60
2021,06,30,16,07,21.60
2021,06,30,16,08,21.60
2021,06,30,16,09,21.70
2021,06,30,16,10,21.80
2021,06,30,16,11,21.80
2021,06,30,16,12,21.90
2021,06,30,16,13,21.90
2021,06,30,16,14,22.00
2021,06,30,16,15,22.00
2021,06,30,16,16,22.00
2021,06,30,16,17,22.00
2021,06,30,16,18,21.90
2021,06,30,16,19,21.90
2021,06,30,16,20,21.90
2021,06,30,16,21,21.80
2021,06,30,16,22,21.90
2021,06,30,16,23,21.90
2021,06,30,16,24,21.90
2021,06,30,16,25,21.90
2021,06,30,16,26,21.90
2021,06,30,16,27,22.00
2021,06,30,16,28,22.00
2021,06,30,16,29,22.00
2021,06,30,16,30,22.00
2021,06,30,16,31,22.00
2021,06,30,16,32,22.00
2021,06,30,16,33,22.00
2021,06,30,16,34,21.90
2021,06,30,16,35,21.90
2021,06,30,16,36,21.90
2021,06,30,16,37,22.00
2021,06,30,16,38,22.00
2021,06,30,16,39,22.00
2021,06,30,16,40,22.00
2021,06,30,16,41,22.10
2021,06,30,16,42,22.10
2021,06,30,16,43,22.10
2021,06,30,16,44,22.10
2021,06,30,16,45,22.10
2021,06,30,16,46,22.00
2021,06,30,16,47,22.00
2021,06,30,16,48,22.00
2021,06,30,16,49,22.00
2021,06,30,16,50,22.10
2021,06,30,16,51,22.10
2021,06,30,16,52,22.10
2021,06,30,16,53,22.10
2021,06,30,16,54,22.00
2021,06,30,16,55,21.90
2021,06,30,16,56,21.90
2021,06,30,16,57,21.90
2021,06,30,16,58,21.80
2021,06,30,16,59,21.80
2021,06,30,17,00,21.70
2021,06,30,17,01,21.70
2021,06,30,17,02,21.70
2021,06,30,17,03,21.70
2021,06,30,17,04,21.70
2021,06,30,17,05,21.80
2021,06,30,17,06,21.80
2021,06,30,17,07,21.80
2021,06,30,17,08,21.80
2021,06,30,17,09,21.80
2021,06,30,17,10,21.80
2021,06,30,17,11,21.80
2021,06,30,17,12,21.80
2021,06,30,17,13,21.90
2021,06,30,17,14,21.90
2021,06,30,17,15,21.90
2021,06,30,17,16,21.90
2021,06,30,17,17,21.90
2021,06,30,17,18,21.90
2021,06,30,17,19,21.90